STARLINK-36063, 66606

Orbit data source: Space-Track

STARLINK-36063, 66606 is a payload satellite owned by SpaceX/Seattle (US) in LEO that was launched on Sat, 22 Nov 2025 UTC via an FALCON 9 launch vehicle from the Air Force Eastern Test Range (AFETR). Payload-class satellites include a variety of spacecraft equipped with specific instruments for various scientific and technological missions. These include communications satellites like Starlink; space stations such as the ISS; scientific satellites like the Hubble; Earth observation satellites from companies like Planet Labs, Umbra, and HawkEye 360; GPS; miniature CubeSats for education and research; and military/defense satellites.

Loading next visibility...
Identifier
66606, 2025-270U
Orbit
LEO
Country
Flag of USUS
Related business
Manufacturer
SpaceX/Seattle
Mission
Operational Commercial Communications
Bus & Motor
STARLINK V2MO, Unknown motor
Mass
575 kg wet, ~530 kg dry
Launch date (UTC)
2025-11-22 (7 months ago)
Launch vehicle
FALCON 9
Launch site
Air Force Eastern Test Range (AFETR)
Object type
Payload
Rocket body
Debris
Shape & HBR
Box + 2 Pan, 17.7 m
Radar Cross Section
36.964 m², Large (>1 m²)

Expand to show TLE details & history
Last TLE update: 19 hours ago

TLE from 19 hours ago
0 STARLINK-36063
1 66606U 25270U   26171.05669951  .00019656  00000-0  72143-3 0  9995
2 66606  43.0017 197.8812 0001279 251.4313 108.6400 15.27601786 33362
Epoch: 2026-06-20T01:21Z
TLE epoch observation values (Epoch: 2026-06-20T01:21:38.837Z)
Latitude
-0.00001°
Longitude
-90.80743°
Altitude
483.04 km
Speed
7.626 km/s
True Right ascension
13h 11m 31s
True Declination
0° 00' 00"
Sunlit
Object was in daylight at epoch
Visualization orbit readout
Latitude
Unknown
Longitude
Unknown
Altitude
Unknown
Speed
Unknown
Apparent Right ascension
Unknown
Apparent Declination
Unknown
Sunlit
N/A
Visualization observer readout
Local Sidereal Time
07:17:55
Azimuth
Unknown
Elevation
Unknown
Doppler factor
Unknown
Orbital elements
Apogee altitude
485.807 km
Perigee altitude
484.051 km
Semi-major axis
6,863.066 km
Eccentricity
0.00013
Inclination
43.0017°
RAAN
197.8812°
Arg. of periapsis
251.4313°
True anomaly
108.65389°
Mean anomaly
108.64°
Eccentric anomaly
108.64694°
Mean motion
3.81738 °/min
Orbital period
94.31 mins
BSTAR
0.00072143
Loading maneuver chart data...
Computing Atmospheric mass density...
Loading historical data...
Loading historical data...
Loading historical data...
Loading historical data...
Loading historical data...
Loading historical data...
Loading historical data...

Documentation

Showing up to 5 results
|